Lid_Strength_Index
6 7 7 6 10 10 12 11 9 9 8 7 5 7 8 7 9 10 1 0 -0 -0 -1 -1 -2 -2 -2 -2 -2 -2 -3 -2 -2 -2 -2 -2 -2 -2 -2 -2 -2 -3 -2 -2 -2 -2 -2 -2 -2
8 8 7 8 11 13 12 11 10 9 7 6 6 6 7 8 5 4 3 -0 -1 -1 -1 -1 -1 -2 -2 -2 -2 -2 -2 -2 -2 -2 -2 -2 -2 -2 -2 -2 -3 -2 -2 -2 -2 -2 -2 -2 -2
7 8 8 11 12 13 12 11 9 8 7 7 7 5 6 7 4 3 1 -0 -1 -1 -1 -1 -2 -2 -2 -2 -2 -2 -2 -2 -2 -2 -2 -2 -2 -2 -2 -2 -2 -2 -2 -2 -2 -2 -2 -2 -2
9 9 10 12 12 10 10 10 9 8 8 7 6 8 5 2 3 1 -0 -1 -0 -1 -1 -1 -2 -2 -2 -2 -2 -2 -2 -2 -2 -2 -2 -2 -2 -2 -2 -2 -2 -2 -2 -2 -2 -2 -2 -2 -2
10 10 12 12 12 10 10 9 8 9 9 7 6 8 7 3 1 0 0 -0 0 -0 -1 -1 -1 -2 -2 -2 -2 -2 -2 -2 -2 -2 -2 -2 -2 -2 -3 -2 -2 -2 -2 -2 -2 -2 -2 -2 -2
12 11 13 13 11 11 10 8 8 9 9 7 7 7 6 2 2 1 -0 0 -1 -0 -1 -1 0 -1 -1 -2 -2 -2 -2 -2 -2 -2 -2 -2 -2 -2 -3 -2 -2 -2 -2 -2 -2 -2 -2 -2 -2
13 13 14 13 12 11 9 8 9 9 9 7 5 8 6 4 2 1 0 -0 -0 -1 -1 -1 -1 -1 0 -1 -1 -2 -2 -2 -2 -2 -2 -2 -2 -2 -2 -2 -2 -2 -2 -2 -2 -2 -2 -2 -2
12 13 15 14 13 11 9 9 8 8 8 4 4 8 7 4 1 1 0 0 0 -0 0 -1 -1 -1 -1 -1 0 -0 -1 -1 -1 -1 -1 -0 -1 -1 -1 -1 -2 -2 -2 -2 -2 -2 -2 -2 -2
11 14 16 14 13 11 10 9 9 8 6 6 4 5 3 2 1 2 2 1 1 0 1 1 -1 -1 -1 -1 0 0 0 0 0 -0 1 1 -1 -1 -1 -1 -1 -2 -2 -2 -2 -2 -2 -2 -1
12 15 15 13 12 11 11 10 10 9 8 7 6 4 3 3 2 3 3 3 2 2 1 0 0 -1 -1 -1 -1 -1 -1 -1 -1 -1 -1 -1 -1 -1 -1 -0 -0 -1 -1 -2 -2 -1 -0 0 0
13 15 14 13 11 10 10 11 10 9 10 7 6 6 4 4 3 3 3 3 2 1 1 -0 0 0 -0 -0 -1 -1 -1 -1 -1 -1 -0 -1 -1 -1 -1 -1 -1 -2 0 -0 -0 -0 0 0 0
13 13 13 12 12 10 10 10 10 10 8 8 6 4 4 4 4 4 3 3 2 1 1 0 0 0 -0 -0 0 -1 -1 -1 -1 -1 -0 -0 -1 -0 -0 -1 -0 -1 -0 0 0 0 0 0 1
13 13 13 13 13 11 10 11 11 10 9 7 4 4 4 4 4 3 2 2 2 2 1 0 1 -0 -0 -1 0 0 -0 -0 -1 -0 -0 -0 -0 -0 0 -0 -0 -0 0 0 0 0 0 1 1
11 12 13 13 14 13 11 11 11 10 7 5 5 5 4 4 4 3 3 2 2 2 2 1 0 -0 -1 -0 0 -0 0 0 0 -0 -0 0 0 0 1 1 0 0 0 0 1 0 1 1 1
11 13 12 13 14 14 13 12 11 10 7 6 6 5 5 4 3 3 3 3 2 2 2 2 1 0 0 -0 -0 -0 0 0 1 0 0 0 0 0 1 1 1 1 1 1 1 1 1 1 1
13 13 14 13 14 14 13 15 10 10 9 7 6 6 5 4 4 3 2 2 2 2 2 2 1 1 0 -0 -0 0 0 0 0 1 1 0 0 1 1 1 1 1 1 1 1 1 1 2 2
15 18 17 15 14 15 15 15 12 11 10 10 7 6 6 5 4 3 2 2 2 2 2 2 1 1 1 1 0 1 0 0 0 0 1 1 1 1 2 2 2 2 2 2 2 2 2 2 2
18 18 17 16 14 15 16 15 13 14 11 10 10 6 6 6 5 3 3 2 2 2 2 1 1 1 1 1 1 1 0 0 -0 -0 -0 0 1 2 2 2 2 3 3 2 3 3 4 3 3
15 16 17 16 14 15 16 16 15 14 15 12 12 11 8 6 4 3 3 2 2 2 2 2 2 1 1 1 2 2 1 0 -0 -0 -1 -0 0 1 2 2 2 3 3 3 4 3 3 4 4
17 17 17 16 16 16 16 17 15 15 15 15 12 12 11 9 7 5 4 3 3 2 2 2 2 2 2 1 1 1 1 0 -0 -1 -1 -0 0 1 2 2 2 3 3 3 4 5 5 4 5
18 18 17 16 17 16 17 17 16 15 16 15 15 14 12 10 9 8 7 5 3 3 2 2 2 1 2 1 1 2 1 1 1 1 0 -0 -0 0 1 2 2 2 3 3 3 4 5 4 5
17 15 15 16 18 19 17 20 17 16 15 16 14 14 13 10 10 9 9 9 6 2 2 1 1 1 1 1 2 2 2 2 1 1 1 1 0 0 1 1 2 2 3 3 3 4 4 4 5
15 15 16 16 18 19 19 20 19 17 17 15 14 14 13 11 9 9 10 9 10 8 4 1 1 1 1 1 1 2 2 1 1 2 2 1 1 1 1 1 2 2 2 2 2 3 4 4 4
14 16 16 18 18 21 19 19 20 18 16 14 13 14 12 11 12 11 11 11 11 10 9 4 1 1 1 1 1 1 2 2 2 3 2 2 2 2 1 1 2 2 2 2 2 3 3 3 4
15 16 20 21 22 22 21 21 18 16 15 14 13 13 14 14 13 13 12 12 12 11 10 7 3 2 1 1 1 1 1 1 2 2 3 3 3 2 2 2 2 2 1 2 3 3 4 4 4
16 16 20 23 24 22 21 21 18 15 14 14 14 14 14 14 12 11 12 12 11 10 10 9 5 3 1 1 1 1 1 1 1 2 2 3 2 2 2 1 2 2 2 2 3 3 3 4 4
17 18 15 20 27 23 21 20 17 15 15 15 15 15 14 14 13 11 11 11 10 9 9 9 8 5 4 2 2 1 1 1 1 2 2 2 2 3 2 2 3 3 3 3 3 3 5 5 5
15 14 18 19 25 25 23 22 20 17 16 16 15 15 14 14 13 11 11 10 8 8 7 7 8 8 8 7 6 6 5 5 3 2 2 2 2 3 3 3 3 4 3 3 4 6 6 6 7
17 17 18 17 19 23 25 21 18 17 16 16 15 14 14 14 13 13 11 10 9 8 8 8 8 7 7 7 8 8 8 8 8 4 2 3 4 4 4 4 5 5 5 5 6 7 7 7 7
15 16 15 18 22 21 21 21 17 17 16 16 15 14 14 13 13 12 11 10 10 9 8 7 7 7 7 7 7 6 5 5 6 4 2 3 2 3 4 6 6 7 6 6 6 7 7 7 8